Home > Weather > Orlando > Past weeks

Flag for USA Past Weather in Orlando, Florida, USA — Yesterday and Last 2 Weeks

Now
78 °F

Passing clouds.


Feels Like: 81 °F
Forecast: 76 / 92 °F
Wind: No wind

Location: Orlando Executive Airport

Current Time: Jul 26, 2016 at 4:28:49 AM

Latest Report: Jul 26, 2016 at 3:53 AM


Visibility: 10 mi

Pressure: 30.07 "Hg

Humidity: 87%

Dew Point: 74 °F

Location of OrlandoLocation

Past Weather in Orlando — Graph

°F

Orlando Temperature Yesterday

Maximum temperature yesterday: 91 °F (at 3:53 PM)
Minimum temperature yesterday: 75 °F (at 5:53 AM)
Average temperature yesterday: 83 °F

High & Low Weather Summary for the Past Weeks

 TemperatureHumidityPressure
High96 °F (Jul 12, 3:53 PM)100% (Jul 19, 10:53 PM)30.24 "Hg (Jul 19, 10:53 PM)
Low74 °F (Jul 14, 5:53 AM)40% (Jul 24, 2:53 PM)29.98 "Hg (Jul 23, 5:53 PM)
Average83 °F74%30.11 "Hg
* Reported Jul 11 2:53 AM — Jul 26 2:53 AM, Orlando, Weather by CustomWeather, © 2016

Note: Actual official high and low records may vary slightly from our data, if they occured in-between our weather recording intervals... More about our weather records

Advertising

Orlando Weather History for the Previous 24 Hours

Scroll right to see more
 ConditionsComfort  
Time TempWeatherWind HumidityBarometerVisibility
2:53 AM
Tue, Jul 26
79 °FClear.No wind82%30.07 "Hg10 mi
1:53 AM79 °FClear.No wind82%30.10 "Hg10 mi
12:53 AM79 °FClear.5 mph82%30.09 "Hg10 mi
11:53 PM
Mon, Jul 25
80 °FClear.6 mph76%30.08 "Hg10 mi
10:53 PM81 °FClear.9 mph74%30.08 "Hg10 mi
9:53 PM83 °FPassing clouds.14 mph77%30.06 "Hg10 mi
8:53 PM83 °FSunny.9 mph72%30.05 "Hg10 mi
7:53 PM84 °FSunny.12 mph70%30.03 "Hg10 mi
6:53 PM88 °FScattered clouds.10 mph59%30.03 "Hg10 mi
5:53 PM91 °FMore clouds than sun.7 mph50%30.01 "Hg10 mi
4:53 PM90 °FPassing clouds.13 mph54%30.01 "Hg10 mi
3:53 PM91 °FScattered clouds.12 mph50%30.02 "Hg10 mi
2:53 PM90 °FScattered clouds.12 mph52%30.05 "Hg10 mi
1:53 PM90 °FPassing clouds.9 mph52%30.06 "Hg10 mi
12:53 PM88 °FPassing clouds.No wind57%30.08 "Hg10 mi
11:53 AM88 °FPassing clouds.8 mph57%30.09 "Hg10 mi
10:53 AM86 °FScattered clouds.5 mph65%30.10 "Hg10 mi
9:53 AM84 °FSunny.7 mph72%30.10 "Hg10 mi
8:53 AM80 °FSunny.3 mph79%30.10 "Hg10 mi
7:53 AM77 °FSunny.No wind90%30.08 "Hg10 mi
6:53 AM75 °FClear.No wind94%30.06 "Hg10 mi
5:53 AM75 °FClear.No wind90%30.05 "Hg10 mi
4:53 AM76 °FClear.No wind88%30.05 "Hg10 mi
Weather by CustomWeather, © 2016

See weather overviewHow to use our weather pages